Location: Gad�tanya
(48.0500°N, 20.8500°E)
Time: 11:54:12
(UTC+00:00)

USA 245 - Pass Details

Date: 05 July 2020
Orbit: 270 x 1010 km, 97.9° (Epoch: 12 August)

Event Time Altitude Azimuth Distance (km) Brightness Sun altitude
Exits shadow 19:29:38 - 160° (SSE) 1,689 5.2 -7.3°
Reaches altitude 10° 19:29:59 10° 159° (SSE) 1,544 5.0 -7.3°
Maximum altitude 19:33:16 76° 74° (ENE) 530 3.2 -7.7°
Drops below altitude 10° 19:37:28 10° 349° (N) 1,969 7.2 -8.2°
Sets 19:39:57 0° 348° (NNW) 3,020 8.3 -8.4°
